DW6619 Weather Reports


Display with metric or nautical units.
time (UTC)temp
F
wind
direction
speed
MPH
gust
MPH
rain 1hr
in
rain 24hr
in
rain mn
in
humidity
%
barometer
mb
20260507213021 66 187 0.0 3.0 0.00 0.14 0.10 54 1008.6
20260507211538 66 249 0.0 0.0 0.00 0.14 0.10 55 1008.6
20260507210034 66 190 0.0 5.0 0.00 0.14 0.10 54 1008.7
20260507204509 65 182 0.0 0.0 0.00 0.14 0.10 57 1008.8
20260507203027 65 192 0.0 0.0 0.00 0.14 0.10 58 1008.9
20260507201523 65 205 0.0 0.0 0.00 0.14 0.10 57 1008.7
20260507200042 65 148 0.0 0.0 0.00 0.14 0.10 58 1008.9
20260507194518 65 213 0.0 0.0 0.00 0.14 0.10 55 1008.9
20260507193014 64 199 0.0 0.0 0.00 0.14 0.10 59 1009.1
20260507191512 63 215 0.0 4.0 0.00 0.14 0.10 59 1009.2
20260507190028 63 153 0.0 4.0 0.00 0.14 0.10 58 1009.6
20260507184523 63 190 0.0 4.0 0.00 0.14 0.10 57 1009.6
20260507183039 63 139 0.0 0.0 0.00 0.14 0.10 61 1009.7
20260507181510 62 215 0.0 0.0 0.01 0.14 0.10 54 1009.7
20260507180021 62 19 0.0 0.0 0.01 0.14 0.10 58 1010.3
20260507174515 61 115 0.0 0.0 0.01 0.14 0.10 53 1010.4
20260507173013 61 151 0.0 0.0 0.01 0.14 0.10 56 1010.4
20260507171512 60 143 0.0 0.0 0.00 0.13 0.09 61 1010.7
20260507170028 59 214 0.0 0.0 0.00 0.13 0.09 56 1011.4
20260507164522 59 135 0.0 0.0 0.00 0.13 0.09 53 1011.4
20260507163018 59 83 0.0 0.0 0.00 0.13 0.09 52 1011.6
20260507161511 59 23 0.0 0.0 0.00 0.13 0.09 56 1011.8
20260507160016 58 90 0.0 0.0 0.00 0.14 0.09 58 1011.9
20260507154516 57 76 0.0 0.0 0.00 0.14 0.09 57 1012.0
20260507153032 56 71 0.0 0.0 0.00 0.14 0.09 58 1011.9
20260507151528 56 82 0.0 0.0 0.00 0.14 0.09 58 1012.3
20260507150017 55 80 0.0 0.0 0.00 0.18 0.09 60 1012.4
20260507144541 55 199 0.0 0.0 0.00 0.18 0.09 61 1012.6
20260507143032 54 360 0.0 0.0 0.00 0.18 0.09 62 1012.7
20260507141528 54 9 0.0 0.0 0.00 0.18 0.09 61 1012.7
20260507140017 54 40 0.0 0.0 0.00 0.28 0.09 62 1012.9
20260507134516 54 150 0.0 0.0 0.00 0.28 0.09 67 1012.9
20260507133010 54 360 0.0 0.0 0.00 0.28 0.09 71 1013.1
20260507131525 54 5 0.0 0.0 0.00 0.28 0.09 71 1013.1
20260507130021 54 360 0.0 0.0 0.00 0.32 0.09 71 1012.8
20260507124540 54 360 0.0 0.0 0.00 0.32 0.09 71 1012.8
20260507123035 54 351 0.0 0.0 0.00 0.32 0.09 73 1012.6
20260507121512 54 289 0.0 0.0 0.00 0.32 0.09 78 1012.7
20260507120027 54 355 0.0 0.0 0.00 0.34 0.09 79 1012.7
20260507114521 54 83 0.0 0.0 0.00 0.34 0.09 79 1012.6
20260507113023 54 360 0.0 0.0 0.00 0.34 0.09 79 1012.3
20260507111517 54 85 0.0 0.0 0.00 0.34 0.09 83 1012.1
20260507110033 53 49 0.0 0.0 0.00 0.34 0.09 86 1012.2
20260507104530 54 61 0.0 0.0 0.00 0.34 0.09 87 1012.3
20260507103021 53 9 0.0 0.0 0.00 0.34 0.09 87 1011.9
20260507101543 53 9 0.0 0.0 0.00 0.34 0.09 87 1011.8
20260507100013 53 9 0.0 0.0 0.00 0.34 0.09 87 1011.7
20260507094513 53 328 0.0 0.0 0.00 0.34 0.09 87 1011.5
20260507093013 54 325 0.0 0.0 0.00 0.34 0.09 87 1011.7
20260507091511 54 19 0.0 0.0 0.00 0.34 0.09 87 1011.2
20260507090011 53 20 0.0 0.0 0.00 0.34 0.09 87 1011.3
20260507084528 54 17 0.0 0.0 0.00 0.34 0.09 87 1011.4
20260507083024 54 355 0.0 0.0 0.00 0.34 0.09 87 1011.2
20260507081542 54 329 0.0 0.0 0.00 0.34 0.09 87 1011.2
20260507080041 54 329 0.0 0.0 0.00 0.34 0.09 87 1011.0
20260507074523 54 63 0.0 0.0 0.00 0.34 0.09 87 1010.6
20260507073032 54 211 0.0 0.0 0.00 0.34 0.09 87 1010.8
20260507071528 54 5 0.0 0.0 0.00 0.34 0.09 87 1010.6
20260507070017 55 103 0.0 0.0 0.00 0.34 0.09 87 1010.8
20260507064509 55 5 0.0 0.0 0.00 0.34 0.09 87 1010.7
20260507063025 55 332 0.0 0.0 0.00 0.34 0.09 87 1010.9
20260507061520 56 46 0.0 0.0 0.01 0.34 0.09 87 1010.9
20260507060028 56 35 0.0 0.0 0.03 0.34 0.09 87 1010.6
20260507054511 56 337 0.0 0.0 0.04 0.34 0.09 87 1010.5
20260507053029 56 338 0.0 0.0 0.04 0.33 0.08 87 1010.8
20260507051525 57 61 0.0 0.0 0.06 0.33 0.08 87 1010.6
20260507050044 57 24 0.0 0.0 0.07 0.31 0.06 87 1010.5
20260507044517 58 68 0.0 0.0 0.09 0.30 0.05 87 1010.7
20260507043032 59 284 0.0 0.0 0.08 0.29 0.04 87 1010.7
20260507041523 60 97 0.0 0.0 0.05 0.26 0.01 86 1010.6
20260507040020 61 65 0.0 0.0 0.03 0.24 0.24 85 1010.3
20260507034521 62 96 0.0 0.0 0.00 0.21 0.21 82 1010.2
20260507033015 63 351 0.0 0.0 0.00 0.21 0.21 80 1010.2
20260507031529 63 84 0.0 0.0 0.00 0.21 0.21 80 1010.4
20260507030026 64 327 0.0 0.0 0.00 0.21 0.21 83 1009.8
20260507024524 65 83 0.0 0.0 0.00 0.21 0.21 84 1009.3
20260507023014 65 342 0.0 0.0 0.00 0.21 0.21 84 1009.6
20260507021509 65 320 0.0 0.0 0.00 0.21 0.21 84 1009.5
20260507020024 66 360 0.0 0.0 0.00 0.21 0.21 84 1009.1
20260507014524 67 24 0.0 0.0 0.00 0.21 0.21 85 1009.5
20260507013021 68 304 0.0 0.0 0.00 0.21 0.21 84 1009.0
20260507011541 68 265 0.0 0.0 0.00 0.21 0.21 83 1009.4
20260507010009 69 267 0.0 0.0 0.00 0.21 0.21 82 1009.5
20260507004533 69 267 0.0 0.0 0.00 0.21 0.21 82 1009.0
20260507003030 69 232 0.0 0.0 0.00 0.21 0.21 82 1009.0
20260507001543 69 244 0.0 0.0 0.00 0.21 0.21 82 1009.0
20260507000022 69 253 0.0 0.0 0.00 0.21 0.21 81 1008.8
20260506234522 69 261 0.0 0.0 0.00 0.21 0.21 80 1008.5
20260506233019 69 194 0.0 0.0 0.00 0.21 0.21 80 1008.1
20260506231510 70 200 0.0 0.0 0.00 0.21 0.21 80 1008.1
20260506230035 70 198 0.0 0.0 0.00 0.21 0.21 79 1007.9
20260506224530 70 198 0.0 0.0 0.00 0.21 0.21 79 1008.0
20260506223049 70 207 0.0 0.0 0.00 0.21 0.21 78 1007.8
20260506221524 70 169 0.0 0.0 0.00 0.21 0.21 78 1007.7
20260506220018 70 200 0.0 0.0 0.00 0.21 0.21 78 1008.1
20260506214517 70 200 0.0 0.0 0.00 0.21 0.21 78 1008.0